Location: Dehesa de la Cepeda
(40.6574°N, 4.3013°W)
Time: 05:34:32
(UTC+00:00)

Courier 1B Rocket - Pass Details

Date: 28 July 2021
Orbit: 920 x 1202 km, 28.3° (Epoch: 19 September)

Event Time Altitude Azimuth Distance (km) Brightness Sun altitude
Exits shadow 03:28:47 17° 188° (S) 2,153 6.4 -16.5°
Maximum altitude 03:30:40 20° 166° (SSE) 2,015 6.4 -16.3°
Drops below altitude 10° 03:35:00 10° 121° (ESE) 2,607 7.4 -15.7°
Sets 03:38:18 0° 105° (ESE) 3,547 8.4 -15.2°
